Time,TemperatureF,DewpointF,PressureIn,WindDirection,WindDirectionDegrees,WindSpeedMPH,WindSpeedGustMPH,Humidity,HourlyPrecipIn,Conditions,Clouds,dailyrainin,SoftwareType,DateUTC
2013-04-02 00:03:00,27.0,-99.9,-100.00,North,-999,-999.0,-999.0,-999,0.00,,,0.10,,2013-04-02 04:03:00,
2013-04-02 00:13:00,27.0,-99.9,-100.00,North,-999,-999.0,-999.0,-999,0.00,,,0.10,,2013-04-02 04:13:00,
2013-04-02 00:33:00,24.0,-99.9,-100.00,North,-999,-999.0,-999.0,-999,0.00,,,0.10,,2013-04-02 04:33:00,
2013-04-02 00:43:00,24.0,-99.9,-100.00,North,-999,-999.0,-999.0,-999,0.00,,,0.10,,2013-04-02 04:43:00,
2013-04-02 00:53:00,24.0,-99.9,-100.00,North,-999,-999.0,-999.0,-999,0.00,,,0.10,,2013-04-02 04:53:00,
2013-04-02 01:02:00,24.0,-99.9,-100.00,North,-999,-999.0,-999.0,-999,0.00,,,0.10,,2013-04-02 05:02:00,
2013-04-02 01:12:00,24.0,-99.9,-100.00,North,-999,-999.0,-999.0,-999,0.00,,,0.10,,2013-04-02 05:12:00,
2013-04-02 01:33:00,23.0,-99.9,-100.00,North,-999,-999.0,-999.0,-999,0.00,,,0.10,,2013-04-02 05:33:00,
2013-04-02 01:43:00,23.0,-99.9,-100.00,North,-999,-999.0,-999.0,-999,0.00,,,0.10,,2013-04-02 05:43:00,
2013-04-02 01:53:00,23.0,-99.9,-100.00,North,-999,-999.0,-999.0,-999,0.00,,,0.10,,2013-04-02 05:53:00,
2013-04-02 02:03:00,23.0,-99.9,-100.00,North,-999,-999.0,-999.0,-999,0.00,,,0.10,,2013-04-02 06:03:00,
2013-04-02 02:32:00,23.0,-99.9,-100.00,North,-999,-999.0,-999.0,-999,0.00,,,0.10,,2013-04-02 06:32:00,
2013-04-02 02:43:00,23.0,-99.9,-100.00,North,-999,-999.0,-999.0,-999,0.00,,,0.10,,2013-04-02 06:43:00,
2013-04-02 02:53:00,23.0,-99.9,-100.00,North,-999,-999.0,-999.0,-999,0.00,,,0.10,,2013-04-02 06:53:00,
2013-04-02 03:03:00,23.0,-99.9,-100.00,North,-999,-999.0,-999.0,-999,0.00,,,0.10,,2013-04-02 07:03:00,
2013-04-02 03:13:00,23.0,-99.9,-100.00,North,-999,-999.0,-999.0,-999,0.00,,,0.10,,2013-04-02 07:13:00,
2013-04-02 03:32:00,21.0,-99.9,-100.00,North,-999,-999.0,-999.0,-999,0.00,,,0.09,,2013-04-02 07:32:00,
2013-04-02 03:43:00,21.0,-99.9,-100.00,North,-999,-999.0,-999.0,-999,0.00,,,0.09,,2013-04-02 07:43:00,
2013-04-02 03:53:00,21.0,-99.9,-100.00,North,-999,-999.0,-999.0,-999,0.00,,,0.09,,2013-04-02 07:53:00,
2013-04-02 04:02:00,21.0,-99.9,-100.00,North,-999,-999.0,-999.0,-999,0.00,,,0.09,,2013-04-02 08:02:00,
2013-04-02 04:14:00,21.0,-99.9,-100.00,North,-999,-999.0,-999.0,-999,0.00,,,0.09,,2013-04-02 08:14:00,
2013-04-02 04:33:00,20.0,-99.9,-100.00,North,-999,-999.0,-999.0,-999,0.00,,,0.06,,2013-04-02 08:33:00,
2013-04-02 04:43:00,20.0,-99.9,-100.00,North,-999,-999.0,-999.0,-999,0.00,,,0.06,,2013-04-02 08:43:00,
2013-04-02 04:53:00,20.0,-99.9,-100.00,North,-999,-999.0,-999.0,-999,0.00,,,0.06,,2013-04-02 08:53:00,
2013-04-02 05:03:00,20.0,-99.9,-100.00,North,-999,-999.0,-999.0,-999,0.00,,,0.06,,2013-04-02 09:03:00,
2013-04-02 05:13:00,20.0,-99.9,-100.00,North,-999,-999.0,-999.0,-999,0.00,,,0.06,,2013-04-02 09:13:00,
2013-04-02 05:33:00,20.0,-99.9,-100.00,North,-999,-999.0,-999.0,-999,0.00,,,0.05,,2013-04-02 09:33:00,
2013-04-02 05:43:00,20.0,-99.9,-100.00,North,-999,-999.0,-999.0,-999,0.00,,,0.05,,2013-04-02 09:43:00,
2013-04-02 05:53:00,20.0,-99.9,-100.00,North,-999,-999.0,-999.0,-999,0.00,,,0.05,,2013-04-02 09:53:00,
2013-04-02 06:04:00,20.0,-99.9,-100.00,North,-999,-999.0,-999.0,-999,0.00,,,0.05,,2013-04-02 10:04:00,
2013-04-02 06:13:00,20.0,-99.9,-100.00,North,-999,-999.0,-999.0,-999,0.00,,,0.05,,2013-04-02 10:13:00,
2013-04-02 06:34:00,19.0,-99.9,-100.00,North,-999,-999.0,-999.0,-999,0.00,,,0.05,,2013-04-02 10:34:00,
2013-04-02 06:43:00,19.0,-99.9,-100.00,North,-999,-999.0,-999.0,-999,0.00,,,0.05,,2013-04-02 10:43:00,
2013-04-02 06:53:00,19.0,-99.9,-100.00,North,-999,-999.0,-999.0,-999,0.00,,,0.05,,2013-04-02 10:53:00,
2013-04-02 07:03:00,19.0,-99.9,-100.00,North,-999,-999.0,-999.0,-999,0.00,,,0.05,,2013-04-02 11:03:00,
2013-04-02 07:33:00,19.0,-99.9,-100.00,North,-999,-999.0,-999.0,-999,0.00,,,0.05,,2013-04-02 11:33:00,
2013-04-02 07:43:00,19.0,-99.9,-100.00,North,-999,-999.0,-999.0,-999,0.00,,,0.05,,2013-04-02 11:43:00,
2013-04-02 07:53:00,19.0,-99.9,-100.00,North,-999,-999.0,-999.0,-999,0.00,,,0.05,,2013-04-02 11:53:00,
2013-04-02 08:03:00,19.0,-99.9,-100.00,North,-999,-999.0,-999.0,-999,0.00,,,0.05,,2013-04-02 12:03:00,
2013-04-02 08:12:00,19.0,-99.9,-100.00,North,-999,-999.0,-999.0,-999,0.00,,,0.05,,2013-04-02 12:12:00,
2013-04-02 08:33:00,22.0,-99.9,-100.00,North,-999,-999.0,-999.0,-999,0.00,,,0.05,,2013-04-02 12:33:00,
2013-04-02 08:43:00,22.0,-99.9,-100.00,North,-999,-999.0,-999.0,-999,0.00,,,0.05,,2013-04-02 12:43:00,
2013-04-02 08:53:00,22.0,-99.9,-100.00,North,-999,-999.0,-999.0,-999,0.00,,,0.05,,2013-04-02 12:53:00,
2013-04-02 09:02:00,22.0,-99.9,-100.00,North,-999,-999.0,-999.0,-999,0.00,,,0.05,,2013-04-02 13:02:00,
2013-04-02 09:12:00,22.0,-99.9,-100.00,North,-999,-999.0,-999.0,-999,0.00,,,0.05,,2013-04-02 13:12:00,
2013-04-02 09:33:00,23.0,-99.9,-100.00,North,-999,-999.0,-999.0,-999,0.00,,,0.05,,2013-04-02 13:33:00,
2013-04-02 09:43:00,23.0,-99.9,-100.00,North,-999,-999.0,-999.0,-999,0.00,,,0.05,,2013-04-02 13:43:00,
2013-04-02 09:53:00,23.0,-99.9,-100.00,North,-999,-999.0,-999.0,-999,0.00,,,0.05,,2013-04-02 13:53:00,
2013-04-02 10:33:00,25.0,-99.9,-100.00,North,-999,-999.0,-999.0,-999,0.00,,,0.05,,2013-04-02 14:33:00,
2013-04-02 10:43:00,25.0,-99.9,-100.00,North,-999,-999.0,-999.0,-999,0.00,,,0.05,,2013-04-02 14:43:00,
2013-04-02 10:53:00,25.0,-99.9,-100.00,North,-999,-999.0,-999.0,-999,0.00,,,0.05,,2013-04-02 14:53:00,
2013-04-02 11:03:00,25.0,-99.9,-100.00,North,-999,-999.0,-999.0,-999,0.00,,,0.05,,2013-04-02 15:03:00,
2013-04-02 11:12:00,25.0,-99.9,-100.00,North,-999,-999.0,-999.0,-999,0.00,,,0.05,,2013-04-02 15:12:00,
2013-04-02 11:34:00,23.0,-99.9,-100.00,North,-999,-999.0,-999.0,-999,0.00,,,0.05,,2013-04-02 15:34:00,
2013-04-02 11:44:00,23.0,-99.9,-100.00,North,-999,-999.0,-999.0,-999,0.00,,,0.05,,2013-04-02 15:44:00,
2013-04-02 11:58:00,23.0,-99.9,-100.00,North,-999,-999.0,-999.0,-999,0.00,,,0.05,,2013-04-02 15:58:00,
2013-04-02 12:05:00,23.0,-99.9,-100.00,North,-999,-999.0,-999.0,-999,0.00,,,0.05,,2013-04-02 16:05:00,
2013-04-02 12:14:00,23.0,-99.9,-100.00,North,-999,-999.0,-999.0,-999,0.00,,,0.05,,2013-04-02 16:14:00,
2013-04-02 12:40:00,25.0,-99.9,-100.00,North,-999,-999.0,-999.0,-999,0.00,,,0.05,,2013-04-02 16:40:00,
2013-04-02 12:54:00,25.0,-99.9,-100.00,North,-999,-999.0,-999.0,-999,0.00,,,0.05,,2013-04-02 16:54:00,
2013-04-02 13:07:00,25.0,-99.9,-100.00,North,-999,-999.0,-999.0,-999,0.00,,,0.05,,2013-04-02 17:07:00,
2013-04-02 13:14:00,25.0,-99.9,-100.00,North,-999,-999.0,-999.0,-999,0.00,,,0.05,,2013-04-02 17:14:00,
2013-04-02 13:44:00,24.0,-99.9,-100.00,North,-999,-999.0,-999.0,-999,0.00,,,0.05,,2013-04-02 17:44:00,
2013-04-02 14:05:00,24.0,-99.9,-100.00,North,-999,-999.0,-999.0,-999,0.00,,,0.05,,2013-04-02 18:05:00,
2013-04-02 14:13:00,24.0,-99.9,-100.00,North,-999,-999.0,-999.0,-999,0.00,,,0.05,,2013-04-02 18:13:00,
2013-04-02 14:35:00,27.0,-99.9,-100.00,North,-999,-999.0,-999.0,-999,0.00,,,0.05,,2013-04-02 18:35:00,
2013-04-02 14:43:00,27.0,-99.9,-100.00,North,-999,-999.0,-999.0,-999,0.00,,,0.05,,2013-04-02 18:43:00,
2013-04-02 14:58:00,27.0,-99.9,-100.00,North,-999,-999.0,-999.0,-999,0.00,,,0.05,,2013-04-02 18:58:00,
2013-04-02 15:04:00,27.0,-99.9,-100.00,North,-999,-999.0,-999.0,-999,0.00,,,0.05,,2013-04-02 19:04:00,
2013-04-02 15:13:00,27.0,-99.9,-100.00,North,-999,-999.0,-999.0,-999,0.00,,,0.05,,2013-04-02 19:13:00,
2013-04-02 15:35:00,27.0,-99.9,-100.00,North,-999,-999.0,-999.0,-999,0.00,,,0.02,,2013-04-02 19:35:00,
2013-04-02 15:48:00,27.0,-99.9,-100.00,North,-999,-999.0,-999.0,-999,0.00,,,0.02,,2013-04-02 19:48:00,
2013-04-02 15:58:00,27.0,-99.9,-100.00,North,-999,-999.0,-999.0,-999,0.00,,,0.02,,2013-04-02 19:58:00,
2013-04-02 16:04:00,27.0,-99.9,-100.00,North,-999,-999.0,-999.0,-999,0.00,,,0.02,,2013-04-02 20:04:00,
2013-04-02 16:14:00,27.0,-99.9,-100.00,North,-999,-999.0,-999.0,-999,0.00,,,0.02,,2013-04-02 20:14:00,
2013-04-02 16:45:00,26.0,-99.9,-100.00,North,-999,-999.0,-999.0,-999,0.00,,,0.01,,2013-04-02 20:45:00,
2013-04-02 17:13:00,26.0,-99.9,-100.00,North,-999,-999.0,-999.0,-999,0.00,,,0.01,,2013-04-02 21:13:00,
2013-04-02 17:15:00,25.0,-99.9,-100.00,North,-999,-999.0,-999.0,-999,0.00,,,0.00,,2013-04-02 21:15:00,
2013-04-02 17:35:00,25.0,-99.9,-100.00,North,-999,-999.0,-999.0,-999,0.00,,,0.00,,2013-04-02 21:35:00,
2013-04-02 17:44:00,25.0,-99.9,-100.00,North,-999,-999.0,-999.0,-999,0.00,,,0.00,,2013-04-02 21:44:00,
2013-04-02 17:57:00,25.0,-99.9,-100.00,North,-999,-999.0,-999.0,-999,0.00,,,0.00,,2013-04-02 21:57:00,
2013-04-02 18:05:00,25.0,-99.9,-100.00,North,-999,-999.0,-999.0,-999,0.00,,,0.00,,2013-04-02 22:05:00,
2013-04-02 18:35:00,25.0,-99.9,-100.00,North,-999,-999.0,-999.0,-999,0.00,,,0.00,,2013-04-02 22:35:00,
2013-04-02 18:45:00,25.0,-99.9,-100.00,North,-999,-999.0,-999.0,-999,0.00,,,0.00,,2013-04-02 22:45:00,
2013-04-02 18:54:00,25.0,-99.9,-100.00,North,-999,-999.0,-999.0,-999,0.00,,,0.00,,2013-04-02 22:54:00,
2013-04-02 19:03:00,25.0,-99.9,-100.00,North,-999,-999.0,-999.0,-999,0.00,,,0.00,,2013-04-02 23:03:00,
2013-04-02 19:13:00,25.0,-99.9,-100.00,North,-999,-999.0,-999.0,-999,0.00,,,0.00,,2013-04-02 23:13:00,
2013-04-02 19:43:00,24.0,-99.9,-100.00,North,-999,-999.0,-999.0,-999,0.00,,,0.00,,2013-04-02 23:43:00,
2013-04-02 20:06:00,24.0,-99.9,-100.00,North,-999,-999.0,-999.0,-999,0.00,,,0.00,,2013-04-03 00:06:00,
2013-04-02 20:14:00,24.0,-99.9,-100.00,North,-999,-999.0,-999.0,-999,0.00,,,0.00,,2013-04-03 00:14:00,
2013-04-02 20:48:00,24.0,-99.9,-100.00,North,-999,-999.0,-999.0,-999,0.00,,,0.00,,2013-04-03 00:48:00,
2013-04-02 20:58:00,24.0,-99.9,-100.00,North,-999,-999.0,-999.0,-999,0.00,,,0.00,,2013-04-03 00:58:00,
2013-04-02 21:13:00,24.0,-99.9,-100.00,North,-999,-999.0,-999.0,-999,0.00,,,0.00,,2013-04-03 01:13:00,
2013-04-02 21:34:00,24.0,-99.9,-100.00,North,-999,-999.0,-999.0,-999,0.00,,,0.00,,2013-04-03 01:34:00,
2013-04-02 21:43:00,24.0,-99.9,-100.00,North,-999,-999.0,-999.0,-999,0.00,,,0.00,,2013-04-03 01:43:00,
2013-04-02 21:54:00,24.0,-99.9,-100.00,North,-999,-999.0,-999.0,-999,0.00,,,0.00,,2013-04-03 01:54:00,
2013-04-02 22:05:00,24.0,-99.9,-100.00,North,-999,-999.0,-999.0,-999,0.00,,,0.00,,2013-04-03 02:05:00,
2013-04-02 22:14:00,24.0,-99.9,-100.00,North,-999,-999.0,-999.0,-999,0.00,,,0.00,,2013-04-03 02:14:00,
2013-04-02 22:35:00,23.0,-99.9,-100.00,North,-999,-999.0,-999.0,-999,0.00,,,0.00,,2013-04-03 02:35:00,
2013-04-02 22:45:00,23.0,-99.9,-100.00,North,-999,-999.0,-999.0,-999,0.00,,,0.00,,2013-04-03 02:45:00,
2013-04-02 22:54:00,23.0,-99.9,-100.00,North,-999,-999.0,-999.0,-999,0.00,,,0.00,,2013-04-03 02:54:00,
2013-04-02 23:14:00,23.0,-99.9,-100.00,North,-999,-999.0,-999.0,-999,0.00,,,0.00,,2013-04-03 03:14:00,
2013-04-02 23:38:00,23.0,-99.9,-100.00,North,-999,-999.0,-999.0,-999,0.00,,,0.00,,2013-04-03 03:38:00,
2013-04-02 23:44:00,23.0,-99.9,-100.00,North,-999,-999.0,-999.0,-999,0.00,,,0.00,,2013-04-03 03:44:00,
2013-04-02 23:55:00,23.0,-99.9,-100.00,North,-999,-999.0,-999.0,-999,0.00,,,0.00,,2013-04-03 03:55:00,